Location: Gibsondale
(40.9931°N, 80.2478°W)
Time: 09:34:13
(UTC+00:00)

Cosmos 1745 Rocket - Pass Details

Date: 29 October 2020
Orbit: 953 x 997 km, 83.0° (Epoch: 26 November)

Event Time Altitude Azimuth Distance (km) Brightness Sun altitude
Rises 23:22:31 0° 357° (N) 3,696 7.0 -12.4°
Reaches altitude 10° 23:25:07 10° 2° (N) 2,750 6.3 -12.8°
Maximum altitude 23:31:18 54° 79° (E) 1,193 4.1 -14.0°
Drops below altitude 10° 23:37:28 10° 156° (SSE) 2,754 6.2 -15.2°
Sets 23:40:03 0° 161° (SSE) 3,701 6.9 -15.7°
